Barranquilla, Colombia

5:23 PM COT on February 12, 2016 (GMT -0500)
Ernesto Cortissoz

Weather History for SKBQ - November, 2012

Change the Weather History Date:

Friday, November 30, 2012

  Actual Average Record
Temperature  
Mean Temperature 84 °F -  
Max Temperature 92 °F 89 °F 95 °F (2015)
Min Temperature 77 °F 75 °F 75 °F (1996)
Cooling Degree Days 20    
Growing Degree Days 34 (Base 50)    
Moisture  
Dew Point 77 °F    
Average Humidity 80    
Maximum Humidity 100    
Minimum Humidity 56    
Precipitation  
Precipitation 0.00 in 0.03 in - ()
Sea Level Pressure  
Sea Level Pressure 29.86 in    
Wind  
Wind Speed 7 mph ()    
Max Wind Speed 13 mph    
Max Gust Speed -    
Visibility 6.1 miles    
Events Fog    
Averages and records for this station are not official NWS values.
T = Trace of Precipitation, MM = Missing Value Source: Averaged Metar Reports

Daily Weather History Graph

Daily Weather History Graph

Search for Another Location

Airport or City:

Trip Planner

Search our weather history database for the weather conditions in past years. The results will help you decide how hot, cold, wet, or windy it might be!

Date:

Astronomy

Nov. 30, 2012 Rise Set
Actual Time 6:01 AM COT 5:34 PM COT
Civil Twilight 5:39 AM COT 5:56 PM COT
Nautical Twilight 5:13 AM COT 6:22 PM COT
Astronomical Twilight 4:47 AM COT 6:48 PM COT
Moon 7:24 PM COT (11/30) 7:33 AM COT (11/30)
Length of Visible Light 12h 17m
Length of Day
11h 32m
Waning Gibbous, 96% of the Moon is Illuminated
Nov 30
Waning Gibbous
Dec 6
Last Quarter
Dec 13
New
Dec 20
First Quarter
Dec 28
Full

Hourly Weather History & Observations

Time (COT) Temp. Heat Index Dew Point Humidity Pressure Visibility Wind Dir Wind Speed Gust Speed Precip Events Conditions
12:00 AM 82.4 °F 90.9 °F 77.0 °F 84% 29.87 in 6.2 mi NW 11.5 mph - N/A   Scattered Clouds
1:00 AM 82 °F - 77 °F 79% 29.86 in 6 mi NW 11.2 mph - -   Haze
1:00 AM 82.4 °F 90.9 °F 77.0 °F 84% 29.85 in 6.2 mi NW 10.4 mph - N/A   Mostly Cloudy
2:00 AM 82.4 °F 90.9 °F 77.0 °F 84% 29.83 in 6.2 mi NW 9.2 mph - N/A   Mostly Cloudy
3:00 AM 82.4 °F 90.9 °F 77.0 °F 84% 29.83 in 6.2 mi NW 5.8 mph - N/A   Mostly Cloudy
4:00 AM 81 °F - 76 °F 80% 29.83 in 6 mi Calm Calm - -   Haze
4:00 AM 80.6 °F 86.2 °F 75.2 °F 84% 29.82 in 6.2 mi Calm Calm - N/A   Mostly Cloudy
5:00 AM 78.8 °F - 77.0 °F 94% 29.83 in 6.2 mi Calm Calm - N/A   Mostly Cloudy
6:00 AM 78.8 °F - 78.8 °F 100% 29.85 in 2.5 mi Calm Calm - N/A   Mostly Cloudy
7:00 AM 80 °F - 78 °F 92% 29.87 in 12 mi Calm Calm - - Fog Light Fog
7:00 AM 80.6 °F 88.1 °F 78.8 °F 94% 29.86 in 4.3 mi Calm Calm - N/A Fog Fog
8:00 AM 80.6 °F 88.1 °F 78.8 °F 94% 29.89 in 4.3 mi SSW 5.8 mph - N/A Fog Fog
9:00 AM 82.4 °F 90.9 °F 77.0 °F 84% 29.91 in 5.6 mi SW 6.9 mph - N/A   Mostly Cloudy
10:00 AM 86 °F - 77 °F 68% 29.93 in 6 mi WSW 8.9 mph - -   Haze
10:00 AM 86.0 °F 96.9 °F 77.0 °F 74% 29.92 in 6.2 mi WSW 9.2 mph - N/A   Scattered Clouds
11:00 AM 87.8 °F 99.7 °F 77.0 °F 70% 29.91 in 6.2 mi South 4.6 mph - N/A   Scattered Clouds
12:00 PM 91.4 °F 102.5 °F 75.2 °F 59% 29.89 in 6.2 mi SSW 6.9 mph - N/A   Scattered Clouds
1:00 PM 90 °F - 76 °F 56% 29.87 in 6 mi ENE 4.5 mph - -   Haze
1:00 PM 89.6 °F 102.2 °F 77.0 °F 66% 29.86 in 6.2 mi ENE 4.6 mph - N/A   Mostly Cloudy
2:00 PM 89.6 °F 102.2 °F 77.0 °F 66% 29.84 in 6.2 mi West 8.1 mph - N/A   Mostly Cloudy
3:00 PM 87.8 °F 99.7 °F 77.0 °F 70% 29.82 in 6.2 mi West 11.5 mph - N/A   Mostly Cloudy
4:00 PM 85 °F - 76 °F 68% 29.82 in 6 mi WNW 11.2 mph - -   Haze
4:00 PM 84.2 °F 92.3 °F 75.2 °F 74% 29.81 in 6.2 mi WNW 11.5 mph - N/A   Mostly Cloudy
5:00 PM 82.4 °F 90.9 °F 77.0 °F 84% 29.81 in 6.2 mi WNW 10.4 mph - N/A   Mostly Cloudy
6:00 PM 82.4 °F 90.9 °F 77.0 °F 84% 29.82 in 6.2 mi WNW 8.1 mph - N/A   Scattered Clouds
7:00 PM 82 °F - 77 °F 79% 29.84 in 6 mi NW 13.4 mph - -   Haze
7:00 PM 82.4 °F 90.9 °F 77.0 °F 84% 29.83 in 6.2 mi NW 12.7 mph - N/A   Partly Cloudy
8:00 PM 82.4 °F 90.9 °F 77.0 °F 84% 29.85 in 6.2 mi NW 5.8 mph - N/A   Partly Cloudy
9:00 PM 82.4 °F 90.9 °F 77.0 °F 84% 29.87 in 6.2 mi North 12.7 mph - N/A   Scattered Clouds
10:00 PM 82 °F - 76 °F 79% 29.88 in 6 mi South 11.2 mph - -   Haze
10:00 PM 82.4 °F 90.9 °F 77.0 °F 84% 29.87 in 6.2 mi South 10.4 mph - N/A   Scattered Clouds
11:00 PM 82.4 °F 90.9 °F 77.0 °F 84% 29.87 in 6.2 mi WNW 5.8 mph - N/A   Scattered Clouds